Location: Breungeshain
(50.5000°N, 9.2000°E)
Time: 07:59:30
(UTC+00:00)

ISS - Pass Details

Date: 23 May 2018
Orbit: 402 x 407 km, 51.6° (Epoch: 27 May)

Event Time Altitude Azimuth Distance (km) Brightness Sun altitude
Rises 21:42:55 0° 261° (W) 2,318 0.2 -15.6°
Reaches altitude 10° 21:45:00 10° 263° (W) 1,459 -0.8 -15.8°
Maximum altitude 21:48:16 79° 350° (N) 416 -3.8 -16.0°
Drops below altitude 10° 21:51:32 10° 78° (ENE) 1,460 -1.1 -16.2°
Sets 21:53:37 0° 79° (E) 2,320 -0.1 -16.3°
